Find Starlink 34131

NORAD ID: 64182 Int'l Des: 2025-113 Owner: SPXS Country: US Constellation: starlink operational
LEOCIRCULAR

Live Position

Loading 3D Globe...

About Starlink 34131

Description loading...

Upcoming Passes

Passes for default location (London). Set your location on the main map for personalized predictions.

Altitude History

Loading altitude history...

Two-Line Element Set

1 64182U 25113N 26106.16781761 .00008675 00000-0 30465-3 0 9992
2 64182 53.1577 277.0124 0001019 76.0863 284.0251 15.30203091 50769
Epoch: Apr 16, 2026 • Age: 13 hours

Current Status

Altitude 476.1 km
Velocity 7.63 km/s
Sub-Earth Point 26.13°N, 29.93°W
Launch Date May 28, 2025
Age 0.8 years
Type internet

Technical Details

Classification Payload
Mass 575.00 kg
Dry Mass 530.00 kg
Total Mass 575.00 kg
Length 0.30 m
Diameter 4.10 m
Span 29.00 m
Shape Box + pan
Manufacturer SPXS
Bus Type Starlink V2MO
Phase Status In Orbit
Owner/State SPXS/US

Most Searched